{"data":{"norad_id":37154,"intl_designator":"2010-043C","name":"COSMOS 2468 (RODNIK-S 3)","alt_names":[],"object_type":"PAYLOAD","status":"ACTIVE","operator":null,"country":"CIS","launch_date":"2010-09-08","launch_site_code":"PLMSC","launch_vehicle":null,"mission":null,"orbit_class":"UNKNOWN","rcs_meters":1.453,"size_class":null,"mass_kg":null,"dimensions":null,"purposes":[],"wikipedia_slug":null,"has_3d_model":false,"image_url":null,"decayed_at":null,"tle_current":{"epoch":"2026-09-19T14:05:49.428960Z","epoch_age_seconds":104615,"freshness":"FRESH","line1":"1 37154U 10043C   26262.58737765  .00000020  00000+0  70796-4 0  9998","line2":"2 37154  82.4666   3.1206 0015662 103.2699 267.9466 12.43749704727610","mean_motion":12.43749704,"eccentricity":0.0015662,"inclination_deg":82.4666,"raan_deg":3.1206,"arg_perigee_deg":103.2699,"mean_anomaly_deg":267.9466,"bstar":7.0796e-5,"rev_number":72761,"period_min":115.77892202658,"perigee_km":1478.4234395146,"apogee_km":1503.0719339073,"semimajor_km":7868.884686711,"source":"CELESTRAK","updated_at":"2026-09-20T09:00:13.757413Z"}}}